CW9825 Weather Reports


time (UTC)temp
C
wind
direction
speed
KPH
gust
KPH
rain 1hr
cm
rain 24hr
cm
rain mn
cm
humidity
%
barometer
mb
20260902230551 27 45 3.2 11.3 0.00 0.00 0.00 48 1011.1
20260902230051 27 100 6.4 11.3 0.00 0.00 0.00 48 1011.2
20260902225549 27 65 4.8 12.9 0.00 0.00 0.00 48 1011.2
20260902225049 27 73 3.2 11.3 0.00 0.00 0.00 48 1011.2
20260902224555 27 112 6.4 11.3 0.00 0.00 0.00 47 1011.1
20260902224049 27 60 6.4 11.3 0.00 0.00 0.00 47 1011.2
20260902223549 27 74 4.8 12.9 0.00 0.00 0.00 47 1011.1
20260902223050 27 93 3.2 9.7 0.00 0.00 0.00 46 1011.1
20260902222547 27 82 4.8 9.7 0.00 0.00 0.00 47 1011.1
20260902222048 27 90 6.4 11.3 0.00 0.00 0.00 47 1011.2
20260902221551 27 61 4.8 11.3 0.00 0.00 0.00 46 1011.3
20260902221045 27 65 4.8 12.9 0.00 0.00 0.00 47 1011.4
20260902220545 27 71 4.8 12.9 0.00 0.00 0.00 46 1011.4
20260902220053 27 92 6.4 12.9 0.00 0.00 0.00 47 1011.4
20260902215544 27 86 3.2 8.0 0.00 0.00 0.00 46 1011.4
20260902215144 27 44 3.2 11.3 0.00 0.00 0.00 45 1011.5
20260902214543 28 110 4.8 16.1 0.00 0.00 0.00 44 1011.5
20260902214043 28 15 6.4 16.1 0.00 0.00 0.00 45 1011.6
20260902213542 28 19 4.8 11.3 0.00 0.00 0.00 44 1011.7
20260902213047 28 86 4.8 12.9 0.00 0.00 0.00 44 1011.8
20260902212542 28 50 4.8 12.9 0.00 0.00 0.00 45 1011.8
20260902212042 28 9 3.2 8.0 0.00 0.00 0.00 44 1011.8
20260902211542 27 78 3.2 11.3 0.00 0.00 0.00 45 1011.8
20260902211040 28 44 4.8 17.7 0.00 0.00 0.00 44 1011.9
20260902210539 28 5 6.4 17.7 0.00 0.00 0.00 44 1011.9
20260902210039 28 35 3.2 9.7 0.00 0.00 0.00 46 1012.0
20260902205538 28 86 4.8 11.3 0.00 0.00 0.00 45 1012.1
20260902205038 28 55 6.4 11.3 0.00 0.00 0.00 45 1012.1
20260902204538 28 82 3.2 14.5 0.00 0.00 0.00 45 1012.1
20260902204038 28 84 6.4 14.5 0.00 0.00 0.00 44 1012.1
20260902203538 28 46 4.8 11.3 0.00 0.00 0.00 45 1012.0
20260902203037 28 141 1.6 8.0 0.00 0.00 0.00 45 1012.1
20260902202537 28 78 3.2 11.3 0.00 0.00 0.00 45 1012.1
20260902202039 28 70 4.8 11.3 0.00 0.00 0.00 45 1012.2
20260902201535 28 330 1.6 8.0 0.00 0.00 0.00 44 1012.3
20260902201036 28 69 3.2 12.9 0.00 0.00 0.00 45 1012.3
20260902200534 28 23 4.8 14.5 0.00 0.00 0.00 44 1012.3
20260902200033 28 53 6.4 14.5 0.00 0.00 0.00 45 1012.3
20260902195532 28 71 8.0 14.5 0.00 0.00 0.00 44 1012.3
20260902195030 28 30 1.6 12.9 0.00 0.00 0.00 44 1012.4
20260902194536 27 11 6.4 12.9 0.00 0.00 0.00 46 1012.5
20260902194029 27 28 3.2 9.7 0.00 0.00 0.00 46 1012.6
20260902193527 27 112 3.2 9.7 0.00 0.00 0.00 48 1012.7
20260902193028 27 51 3.2 11.3 0.00 0.00 0.00 48 1012.7
20260902192526 27 63 4.8 9.7 0.00 0.00 0.00 48 1012.7
20260902192026 27 69 1.6 9.7 0.00 0.00 0.00 47 1012.7
20260902191525 27 108 4.8 9.7 0.00 0.00 0.00 48 1012.8
20260902191028 27 5 1.6 6.4 0.00 0.00 0.00 46 1012.9
20260902190524 27 11 3.2 8.0 0.00 0.00 0.00 49 1012.9
20260902190033 27 65 3.2 12.9 0.00 0.00 0.00 48 1013.1
20260902185523 27 78 4.8 12.9 0.00 0.00 0.00 49 1013.2
20260902185024 27 355 4.8 9.7 0.00 0.00 0.00 51 1013.2
20260902184521 27 101 3.2 9.7 0.00 0.00 0.00 51 1013.1
20260902184020 27 61 3.2 14.5 0.00 0.00 0.00 51 1013.2
20260902183520 27 59 4.8 14.5 0.00 0.00 0.00 50 1013.2
20260902183019 27 331 6.4 11.3 0.00 0.00 0.00 51 1013.2
20260902182521 26 45 3.2 11.3 0.00 0.00 0.00 52 1013.3
20260902182017 26 51 4.8 12.9 0.00 0.00 0.00 52 1013.4
20260902181517 27 101 4.8 16.1 0.00 0.00 0.00 51 1013.4
20260902181016 26 92 8.0 16.1 0.00 0.00 0.00 52 1013.5
20260902180516 26 5 4.8 14.5 0.00 0.00 0.00 53 1013.5
20260902180022 26 340 3.2 14.5 0.00 0.00 0.00 52 1013.5
20260902175515 26 34 4.8 14.5 0.00 0.00 0.00 52 1013.5
20260902175014 26 59 4.8 9.7 0.00 0.00 0.00 51 1013.6
20260902174516 26 346 3.2 14.5 0.00 0.00 0.00 54 1013.5
20260902174012 26 86 6.4 14.5 0.00 0.00 0.00 53 1013.6
20260902173513 26 90 4.8 14.5 0.00 0.00 0.00 55 1013.6
20260902173012 26 92 4.8 14.5 0.00 0.00 0.00 54 1013.7
20260902172515 26 78 6.4 14.5 0.00 0.00 0.00 53 1013.7
20260902172010 26 42 8.0 14.5 0.00 0.00 0.00 54 1013.7
20260902171509 26 28 6.4 12.9 0.00 0.00 0.00 55 1013.7
20260902171008 26 96 4.8 17.7 0.00 0.00 0.00 55 1013.6
20260902170505 25 57 6.4 17.7 0.00 0.00 0.00 57 1013.6
20260902170005 25 61 4.8 11.3 0.00 0.00 0.00 60 1013.7
20260902165505 25 61 4.8 12.9 0.00 0.00 0.00 58 1013.7
20260902165005 25 53 4.8 12.9 0.00 0.00 0.00 57 1013.6
20260902164504 25 16 4.8 9.7 0.00 0.00 0.00 58 1013.7
20260902164004 25 38 6.4 12.9 0.00 0.00 0.00 58 1013.8
20260902163503 25 55 3.2 12.9 0.00 0.00 0.00 60 1013.8
20260902163002 25 61 4.8 9.7 0.00 0.00 0.00 59 1013.7
20260902162501 24 19 4.8 16.1 0.00 0.00 0.00 61 1013.7
20260902162001 24 14 4.8 16.1 0.00 0.00 0.00 60 1013.6
20260902161501 23 26 3.2 11.3 0.00 0.00 0.00 62 1013.7
20260902161001 23 69 4.8 12.9 0.00 0.00 0.00 61 1013.6
20260902160600 24 338 4.8 16.1 0.00 0.00 0.00 59 1013.6
20260902160059 25 33 4.8 16.1 0.00 0.00 0.00 61 1013.6
20260902155558 24 20 3.2 8.0 0.00 0.00 0.00 62 1013.5
20260902155056 23 74 1.6 9.7 0.00 0.00 0.00 63 1013.5
20260902154555 23 64 4.8 8.0 0.00 0.00 0.00 65 1013.6
20260902154054 23 45 1.6 8.0 0.00 0.00 0.00 64 1013.8
20260902153553 23 15 3.2 6.4 0.00 0.00 0.00 64 1013.7
20260902153053 23 61 1.6 6.4 0.00 0.00 0.00 66 1013.6
20260902152550 22 101 0.0 0.0 0.00 0.00 0.00 67 1013.7
20260902152051 22 99 0.0 0.0 0.00 0.00 0.00 68 1013.7
20260902151548 22 94 0.0 0.0 0.00 0.00 0.00 70 1013.8
20260902151046 22 94 0.0 0.0 0.00 0.00 0.00 69 1013.9
20260902150544 21 95 0.0 0.0 0.00 0.00 0.00 69 1014.0
20260902150044 21 95 0.0 0.0 0.00 0.00 0.00 70 1014.1
20260902145543 21 95 0.0 0.0 0.00 0.00 0.00 69 1014.1
20260902145043 21 95 0.0 0.0 0.00 0.00 0.00 71 1014.1
20260902144541 21 95 0.0 0.0 0.00 0.00 0.00 72 1014.1
20260902144040 21 95 0.0 0.0 0.00 0.00 0.00 72 1014.1
20260902143539 20 95 0.0 3.2 0.00 0.00 0.00 73 1014.1
20260902143038 20 95 0.0 4.8 0.00 0.00 0.00 73 1014.1
20260902142537 20 95 0.0 4.8 0.00 0.00 0.00 73 1014.1
20260902142036 20 105 1.6 4.8 0.00 0.00 0.00 73 1014.2
20260902141545 20 110 1.6 4.8 0.00 0.00 0.00 73 1014.2
20260902141035 20 104 0.0 4.8 0.00 0.00 0.00 74 1014.3
20260902140534 20 103 0.0 4.8 0.00 0.00 0.00 74 1014.3
20260902140034 19 104 0.0 4.8 0.00 0.00 0.00 74 1014.3
20260902135533 19 103 0.0 3.2 0.00 0.00 0.00 74 1014.4
20260902135032 19 103 1.6 4.8 0.00 0.00 0.00 74 1014.4
20260902134534 18 103 1.6 4.8 0.00 0.00 0.00 74 1014.5
20260902134031 18 105 0.0 4.8 0.00 0.00 0.00 74 1014.4
20260902133535 18 105 1.6 4.8 0.00 0.00 0.00 74 1014.3
20260902133032 18 81 1.6 6.4 0.00 0.00 0.00 74 1014.3
20260902132532 18 81 1.6 6.4 0.00 0.00 0.00 74 1014.3
20260902132029 18 55 1.6 6.4 0.00 0.00 0.00 74 1014.2
20260902131529 18 49 0.0 4.8 0.00 0.00 0.00 76 1014.2
20260902131029 18 49 1.6 4.8 0.00 0.00 0.00 77 1014.3
20260902130529 18 53 1.6 4.8 0.00 0.00 0.00 77 1014.2
20260902130033 17 19 1.6 4.8 0.00 0.00 0.00 79 1014.3
20260902125528 17 17 0.0 3.2 0.00 0.00 0.00 80 1014.4
20260902125028 17 12 0.0 6.4 0.00 0.00 0.00 81 1014.4
20260902124528 17 12 1.6 6.4 0.00 0.00 0.00 82 1014.2
20260902124026 16 14 0.0 6.4 0.00 0.00 0.00 82 1014.2
20260902123528 16 12 0.0 6.4 0.00 0.00 0.00 83 1014.0
20260902123025 16 12 3.2 4.8 0.00 0.00 0.00 83 1014.2
20260902122523 16 13 1.6 4.8 0.00 0.00 0.00 84 1014.0
20260902122023 16 5 0.0 1.6 0.00 0.00 0.00 84 1014.0
20260902121523 16 5 0.0 0.0 0.00 0.00 0.00 84 1014.1
20260902121022 16 5 0.0 3.2 0.00 0.00 0.00 84 1014.0
20260902120521 16 5 0.0 3.2 0.00 0.00 0.00 84 1014.0
20260902120019 16 5 0.0 4.8 0.00 0.00 0.00 84 1014.0
20260902115525 15 5 0.0 4.8 0.00 0.00 0.00 84 1013.9
20260902115018 15 5 1.6 4.8 0.00 0.00 0.00 84 1013.9
20260902114524 15 360 0.0 6.4 0.00 0.00 0.00 84 1013.9
20260902114021 15 360 1.6 6.4 0.00 0.00 0.00 84 1013.9
20260902113517 15 5 3.2 4.8 0.00 0.00 0.00 84 1013.9
20260902113018 15 350 1.6 4.8 0.00 0.00 0.00 84 1013.9
20260902112518 15 355 0.0 3.2 0.00 0.00 0.00 84 1013.9
20260902112017 15 355 0.0 3.2 0.00 0.00 0.00 84 1014.1
20260902111517 15 355 0.0 1.6 0.00 0.00 0.00 84 1014.1
20260902111016 15 355 0.0 1.6 0.00 0.00 0.00 84 1013.8
20260902110518 15 355 0.0 1.6 0.00 0.00 0.00 84 1013.9
20260902110016 15 355 0.0 3.2 0.00 0.00 0.00 84 1013.9
20260902105515 15 355 0.0 6.4 0.00 0.00 0.00 84 1013.9
20260902105019 15 355 0.0 6.4 0.00 0.00 0.00 84 1013.7
20260902104517 15 355 0.0 1.6 0.00 0.00 0.00 85 1013.6
20260902104015 15 355 0.0 4.8 0.00 0.00 0.00 85 1013.6
20260902103514 15 355 1.6 4.8 0.00 0.00 0.00 85 1013.6
20260902103015 15 355 1.6 4.8 0.00 0.00 0.00 85 1013.8
20260902102514 15 355 1.6 4.8 0.00 0.00 0.00 86 1013.8
20260902102015 15 311 1.6 4.8 0.00 0.00 0.00 86 1013.8
20260902101515 15 241 0.0 4.8 0.00 0.00 0.00 86 1014.0
20260902101014 15 241 0.0 4.8 0.00 0.00 0.00 86 1013.9
20260902100513 15 232 0.0 0.0 0.00 0.00 0.00 86 1014.0
20260902100015 15 232 0.0 0.0 0.00 0.00 0.00 86 1014.0
20260902095512 15 232 0.0 0.0 0.00 0.00 0.00 86 1014.1
20260902095011 15 232 0.0 1.6 0.00 0.00 0.00 86 1014.1
20260902094511 15 232 0.0 1.6 0.00 0.00 0.00 85 1014.1
20260902094011 15 232 0.0 0.0 0.00 0.00 0.00 85 1014.0
20260902093511 15 232 0.0 0.0 0.00 0.00 0.00 85 1014.0
20260902093010 15 232 0.0 1.6 0.00 0.00 0.00 85 1014.0
20260902092511 15 232 0.0 3.2 0.00 0.00 0.00 85 1013.9
20260902092009 15 232 0.0 3.2 0.00 0.00 0.00 85 1013.9
20260902091510 15 232 1.6 3.2 0.00 0.00 0.00 85 1013.9
20260902091008 15 232 0.0 0.0 0.00 0.00 0.00 84 1013.8
20260902090507 15 232 0.0 0.0 0.00 0.00 0.00 84 1013.8
20260902090007 15 232 0.0 0.0 0.00 0.00 0.00 84 1013.8
20260902085505 15 232 0.0 0.0 0.00 0.00 0.00 84 1013.8
20260902085005 15 232 0.0 0.0 0.00 0.00 0.00 83 1013.6
20260902084513 16 232 0.0 1.6 0.00 0.00 0.00 83 1013.6
20260902084005 16 232 0.0 1.6 0.00 0.00 0.00 83 1013.6
20260902083504 16 232 0.0 0.0 0.00 0.00 0.00 83 1013.5
20260902083004 16 232 0.0 1.6 0.00 0.00 0.00 83 1013.4
20260902082504 16 232 0.0 1.6 0.00 0.00 0.00 83 1013.3
20260902082007 16 232 0.0 1.6 0.00 0.00 0.00 83 1013.3
20260902081504 16 232 0.0 3.2 0.00 0.00 0.00 83 1013.3
20260902081003 16 232 0.0 3.2 0.00 0.00 0.00 83 1013.2
20260902080503 16 228 0.0 0.0 0.00 0.00 0.00 84 1013.2
20260902080002 16 228 0.0 1.6 0.00 0.00 0.00 84 1013.1
20260902075501 16 228 0.0 3.2 0.00 0.00 0.00 84 1013.2
20260902075001 16 223 0.0 4.8 0.00 0.00 0.00 83 1013.2
20260902074614 16 223 1.6 4.8 0.00 0.00 0.00 83 1013.2
20260902074100 16 219 0.0 1.6 0.00 0.00 0.00 83 1013.2
20260902073559 16 219 0.0 0.0 0.00 0.00 0.00 83 1013.4
20260902073059 16 219 0.0 0.0 0.00 0.00 0.00 83 1013.4
20260902072601 16 219 0.0 3.2 0.00 0.00 0.00 83 1013.5
20260902072058 16 219 0.0 3.2 0.00 0.00 0.00 83 1013.5
20260902071558 16 215 0.0 0.0 0.00 0.00 0.00 83 1013.6
20260902071055 16 215 0.0 0.0 0.00 0.00 0.00 83 1013.6
20260902070555 16 215 0.0 0.0 0.00 0.00 0.00 83 1013.7
20260902070055 16 215 0.0 0.0 0.00 0.00 0.00 82 1013.6
20260902065554 16 215 0.0 0.0 0.00 0.00 0.00 82 1013.7
20260902065054 17 215 0.0 0.0 0.00 0.00 0.00 82 1013.7
20260902064553 17 215 0.0 0.0 0.00 0.00 0.00 81 1013.8
20260902064053 17 215 0.0 0.0 0.00 0.00 0.00 81 1013.7
20260902063551 17 215 0.0 0.0 0.00 0.00 0.00 80 1013.8
20260902063110 17 215 0.0 0.0 0.00 0.00 0.00 79 1013.7
20260902062550 17 215 0.0 0.0 0.00 0.00 0.00 78 1013.9
20260902062048 18 215 0.0 0.0 0.00 0.00 0.00 78 1013.9
20260902061552 18 215 0.0 0.0 0.00 0.00 0.00 77 1013.9
20260902061048 18 215 0.0 0.0 0.00 0.00 0.00 77 1013.9
20260902060545 18 215 0.0 0.0 0.00 0.00 0.00 76 1013.8
20260902055543 18 215 0.0 0.0 0.00 0.00 0.00 75 1013.8
20260902055043 18 215 0.0 0.0 0.00 0.00 0.00 74 1013.9
20260902054543 18 215 0.0 0.0 0.00 0.00 0.00 73 1013.8
20260902054042 19 215 0.0 0.0 0.00 0.00 0.00 72 1013.7
20260902053542 19 215 0.0 0.0 0.00 0.00 0.00 72 1013.7
20260902053039 19 215 0.0 0.0 0.00 0.00 0.00 71 1013.7
20260902052540 19 215 0.0 0.0 0.00 0.00 0.00 71 1013.7
20260902052037 19 215 0.0 0.0 0.00 0.00 0.00 71 1013.6
20260902051545 20 215 0.0 0.0 0.00 0.00 0.00 71 1013.5
20260902051035 20 215 0.0 0.0 0.00 0.00 0.00 70 1013.5
20260902050534 20 215 0.0 0.0 0.00 0.00 0.00 70 1013.6
20260902050033 20 215 0.0 3.2 0.00 0.00 0.00 69 1013.6
20260902045532 20 215 0.0 3.2 0.00 0.00 0.00 69 1013.6
20260902045032 20 215 0.0 3.2 0.00 0.00 0.00 68 1013.5
20260902044532 20 215 0.0 4.8 0.00 0.00 0.00 68 1013.4
20260902044033 21 215 1.6 4.8 0.00 0.00 0.00 67 1013.5
20260902043532 21 215 0.0 0.0 0.00 0.00 0.00 67 1013.6
20260902043034 21 215 0.0 0.0 0.00 0.00 0.00 67 1013.5
20260902042532 21 215 0.0 0.0 0.00 0.00 0.00 66 1013.6
20260902042032 21 215 0.0 0.0 0.00 0.00 0.00 65 1013.7
20260902041549 21 215 0.0 0.0 0.00 0.00 0.00 65 1013.7
20260902041031 21 215 0.0 3.2 0.00 0.00 0.00 64 1013.7
20260902040531 21 215 0.0 4.8 0.00 0.00 0.00 64 1013.9
20260902040031 21 215 0.0 4.8 0.00 0.00 0.00 63 1013.8
20260902035534 22 216 1.6 4.8 0.00 0.00 0.00 62 1013.7
20260902035031 22 242 0.0 3.2 0.00 0.00 0.00 61 1013.9
20260902034531 22 325 0.0 3.2 0.00 0.00 0.00 60 1013.9
20260902034030 22 341 0.0 0.0 0.00 0.00 0.00 60 1013.8
20260902033531 22 341 0.0 0.0 0.00 0.00 0.00 59 1013.9
20260902033030 22 341 0.0 0.0 0.00 0.00 0.00 59 1013.8
20260902032530 22 341 0.0 0.0 0.00 0.00 0.00 59 1013.7
20260902032029 22 341 0.0 0.0 0.00 0.00 0.00 58 1013.5
20260902031530 22 341 0.0 1.6 0.00 0.00 0.00 58 1013.4
20260902031030 22 341 0.0 1.6 0.00 0.00 0.00 57 1013.4
20260902030530 22 341 0.0 1.6 0.00 0.00 0.00 57 1013.4
20260902030029 22 341 0.0 0.0 0.00 0.00 0.00 56 1013.5
20260902025530 23 341 0.0 0.0 0.00 0.00 0.00 55 1013.5
20260902025029 23 341 0.0 1.6 0.00 0.00 0.00 55 1013.5
20260902024529 23 341 0.0 1.6 0.00 0.00 0.00 55 1013.6
20260902024028 23 341 0.0 1.6 0.00 0.00 0.00 55 1013.6
20260902023528 23 341 0.0 1.6 0.00 0.00 0.00 54 1013.5
20260902023028 23 341 0.0 1.6 0.00 0.00 0.00 54 1013.6
20260902022528 23 340 0.0 0.0 0.00 0.00 0.00 54 1013.5
20260902022027 23 340 0.0 1.6 0.00 0.00 0.00 54 1013.4
20260902021527 23 340 0.0 3.2 0.00 0.00 0.00 53 1013.4
20260902021027 23 340 0.0 3.2 0.00 0.00 0.00 54 1013.5
20260902020528 23 340 0.0 4.8 0.00 0.00 0.00 53 1013.4
20260902020029 23 341 1.6 4.8 0.00 0.00 0.00 52 1013.3
20260902015526 23 341 0.0 3.2 0.00 0.00 0.00 52 1013.4
20260902015028 23 341 0.0 4.8 0.00 0.00 0.00 52 1013.3
20260902014527 23 341 1.6 8.0 0.00 0.00 0.00 52 1013.3
20260902014027 24 342 1.6 8.0 0.00 0.00 0.00 52 1013.3
20260902013526 24 325 3.2 9.7 0.00 0.00 0.00 52 1013.4
20260902013026 24 331 1.6 9.7 0.00 0.00 0.00 52 1013.2
20260902012528 24 333 3.2 12.9 0.00 0.00 0.00 52 1013.2
20260902012029 24 320 1.6 12.9 0.00 0.00 0.00 51 1013.2
20260902011526 24 323 3.2 12.9 0.00 0.00 0.00 51 1013.3
20260902011029 25 310 4.8 12.9 0.00 0.00 0.00 51 1013.2
20260902010525 25 323 3.2 6.4 0.00 0.00 0.00 51 1013.2
20260902010030 25 323 1.6 8.0 0.00 0.00 0.00 51 1013.3
20260902005525 25 300 3.2 8.0 0.00 0.00 0.00 51 1013.3
20260902005025 25 291 1.6 8.0 0.00 0.00 0.00 51 1013.3
20260902004530 25 270 3.2 8.0 0.00 0.00 0.00 51 1013.3
20260902004003 25 292 1.6 9.7 0.00 0.00 0.00 50 1013.3
20260902003503 25 281 4.8 9.7 0.00 0.00 0.00 50 1013.5
20260902003010 25 284 1.6 8.0 0.00 0.00 0.00 50 1013.3
20260902002502 25 286 3.2 9.7 0.00 0.00 0.00 50 1013.3
20260902002002 25 284 3.2 9.7 0.00 0.00 0.00 50 1013.2
20260902001502 25 272 3.2 11.3 0.00 0.00 0.00 50 1013.2
20260902001003 25 297 1.6 9.7 0.00 0.00 0.00 50 1013.3
20260902000502 25 291 3.2 12.9 0.00 0.00 0.00 49 1013.3
20260902000004 25 321 4.8 12.9 0.00 0.00 0.00 49 1013.3
20260901235502 26 261 4.8 12.9 0.00 0.00 0.00 49 1013.3
20260901235001 26 303 3.2 16.1 0.00 0.00 0.00 49 1013.3
20260901234502 26 298 4.8 16.1 0.00 0.00 0.00 48 1013.2
20260901234001 26 310 6.4 14.5 0.00 0.00 0.00 49 1013.2
20260901233500 26 291 6.4 14.5 0.00 0.00 0.00 48 1013.3
20260901233101 26 318 3.2 11.3 0.00 0.00 0.00 48 1013.4
20260901232600 26 300 3.2 11.3 0.00 0.00 0.00 47 1013.4
20260901232100 26 277 6.4 16.1 0.00 0.00 0.00 47 1013.3
20260901231604 26 253 6.4 16.1 0.00 0.00 0.00 47 1013.3
20260901231059 26 250 6.4 16.1 0.00 0.00 0.00 46 1013.4